BAW3 HECA-LGRP

Flight info

Callsign BAW3
Flight time N/A
Altitude 24000
Route CVO A16 DEGDI/N0471F400 A16 RASDA M855 USEBE N128 OTHON UN128 FOXLI
Aircraft CONC/H-SDE2E3FGHIJ3J4J5M1RWXY/LB1D1

Departure

Time 2026-05-06 15:57
Airport Cairo International Airport (HECA)

Arrival

Time N/A
Airport Rhodes International Airport "Diagoras" (LGRP)
Time Latitude Longitude Altitude Speed Heading
2026-05-06 15:48 30.10445 31.39612 364 ft 0 kts 75°
2026-05-06 15:52 30.10446 31.39618 362 ft 3 kts 75°
2026-05-06 15:53 30.10447 31.39622 362 ft 0 kts 75°
2026-05-06 15:53 30.10449 31.39632 369 ft 2 kts 75°
2026-05-06 15:53 30.10455 31.39657 368 ft 4 kts 75°
2026-05-06 15:53 30.10469 31.39723 367 ft 11 kts 82°
2026-05-06 15:54 30.10434 31.39783 373 ft 10 kts 137°
2026-05-06 15:54 30.10395 31.39796 371 ft 7 kts 185°
2026-05-06 15:54 30.10284 31.39699 373 ft 30 kts 226°
2026-05-06 15:54 30.10180 31.39567 374 ft 1 kts 208°
2026-05-06 15:55 30.10166 31.39570 377 ft 3 kts 170°
2026-05-06 15:55 30.10089 31.39625 381 ft 21 kts 146°
2026-05-06 15:55 30.10015 31.39719 390 ft 10 kts 116°
2026-05-06 15:55 30.10008 31.39748 391 ft 0 kts 103°
2026-05-06 15:56 30.10006 31.39757 392 ft 3 kts 100°
2026-05-06 15:56 30.10012 31.39826 394 ft 18 kts 78°
2026-05-06 15:56 30.10130 31.40036 393 ft 55 kts 48°
2026-05-06 15:56 30.10588 31.40651 389 ft 145 kts 49°
2026-05-06 15:57 30.11444 31.41758 488 ft 218 kts 44°
2026-05-06 15:57 30.12505 31.43028 1983 ft 219 kts 43°
2026-05-06 15:57 30.13575 31.44234 3654 ft 218 kts 41°
2026-05-06 15:57 30.14307 31.45761 5101 ft 231 kts 87°
2026-05-06 15:58 30.13837 31.47588 6439 ft 254 kts 128°
2026-05-06 15:58 30.12357 31.48834 7596 ft 282 kts 164°
2026-05-06 15:58 30.10290 31.49033 8327 ft 324 kts 194°
2026-05-06 15:58 30.08129 31.47948 8804 ft 369 kts 221°
2026-05-06 15:59 30.06360 31.45595 9293 ft 413 kts 244°
2026-05-06 15:59 30.05506 31.42325 10310 ft 437 kts 265°
2026-05-06 15:59 30.05299 31.38771 11833 ft 449 kts 267°
2026-05-06 15:59 30.05109 31.35144 13393 ft 457 kts 266°
2026-05-06 16:00 30.04812 31.31462 14851 ft 465 kts 264°
2026-05-06 16:00 30.04607 31.27718 16322 ft 472 kts 276°
2026-05-06 16:00 30.05415 31.24034 17854 ft 481 kts 294°
2026-05-06 16:00 30.07284 31.20799 19115 ft 493 kts 313°
2026-05-06 16:01 30.10049 31.18402 20366 ft 506 kts 332°
2026-05-06 16:01 30.13421 31.17114 21528 ft 520 kts 350°
2026-05-06 16:01 30.17084 31.17064 22620 ft 536 kts
2026-05-06 16:01 30.20831 31.17615 23280 ft 549 kts
2026-05-06 16:02 30.24636 31.17714 23630 ft 546 kts 354°
2026-05-06 16:02 30.28417 31.17334 23792 ft 547 kts 349°
2026-05-06 16:02 30.32183 31.16667 23887 ft 547 kts 347°
2026-05-06 16:02 30.35907 31.15794 23945 ft 546 kts 344°
2026-05-06 16:03 30.39606 31.14772 23977 ft 546 kts 343°
2026-05-06 16:03 30.43289 31.13678 23998 ft 547 kts 342°
2026-05-06 16:03 30.46971 31.12552 24029 ft 546 kts 342°
2026-05-06 16:03 30.50637 31.11415 24039 ft 546 kts 342°
2026-05-06 16:04 30.54268 31.10155 24039 ft 545 kts 338°
2026-05-06 16:04 30.57837 31.08675 24038 ft 545 kts 337°
2026-05-06 16:04 30.61394 31.07150 24057 ft 544 kts 336°
2026-05-06 16:04 30.64934 31.05592 24079 ft 544 kts 336°
2026-05-06 16:05 30.68466 31.03995 24102 ft 550 kts 335°
2026-05-06 16:05 30.72140 31.02280 24209 ft 588 kts 335°
2026-05-06 16:05 30.76015 31.00413 24383 ft 617 kts 335°
2026-05-06 16:05 30.79954 30.98467 24566 ft 591 kts 334°
2026-05-06 16:06 30.83550 30.96671 24656 ft 542 kts 334°
2026-05-06 16:06 30.86914 30.94764 24621 ft 537 kts 322°
2026-05-06 16:06 30.89145 30.91403 23455 ft 534 kts 283°
2026-05-06 16:06 30.89785 30.87198 22476 ft 519 kts 288°
2026-05-06 16:07 30.91625 30.83700 23041 ft 509 kts 319°
2026-05-06 16:07 30.94725 30.81671 22772 ft 518 kts 332°
2026-05-06 16:07 30.98017 30.79820 22663 ft 530 kts 331°